Time,TemperatureF,DewpointF,PressureIn,WindDirection,WindDirectionDegrees,WindSpeedMPH,WindSpeedGustMPH,Humidity,HourlyPrecipIn,Conditions,Clouds,dailyrainin,SoftwareType,DateUTC
2013-02-08 00:10:00,50.7,37.0,29.82,South,187,1.0,7.0,59,0.00,,,0.00,weatherlink.com 1.10,2013-02-08 05:10:00,
2013-02-08 00:25:00,50.8,36.0,29.81,SSW,198,0.0,4.0,58,0.00,,,0.00,weatherlink.com 1.10,2013-02-08 05:25:00,
2013-02-08 00:40:00,50.8,37.0,29.81,SSE,154,1.0,4.0,60,0.00,,,0.00,weatherlink.com 1.10,2013-02-08 05:40:00,
2013-02-08 00:55:00,50.8,38.0,29.81,SSW,205,0.0,5.0,61,0.00,,,0.00,weatherlink.com 1.10,2013-02-08 05:55:00,
2013-02-08 01:10:00,50.6,38.0,29.81,SE,144,2.0,5.0,63,0.00,,,0.00,weatherlink.com 1.10,2013-02-08 06:10:00,
2013-02-08 01:25:00,50.3,39.0,29.81,SSW,207,1.0,6.0,65,0.00,,,0.00,weatherlink.com 1.10,2013-02-08 06:25:00,
2013-02-08 01:40:00,50.4,40.0,29.80,SSW,205,2.0,5.0,67,0.00,,,0.00,weatherlink.com 1.10,2013-02-08 06:40:00,
2013-02-08 01:55:00,50.6,41.0,29.80,SSE,161,1.0,5.0,70,0.00,,,0.00,weatherlink.com 1.10,2013-02-08 06:55:00,
2013-02-08 02:10:00,50.6,42.0,29.80,SSE,166,2.0,7.0,72,0.00,,,0.00,weatherlink.com 1.10,2013-02-08 07:10:00,
2013-02-08 02:25:00,50.6,44.0,29.80,SSE,157,5.0,7.0,78,0.00,,,0.00,weatherlink.com 1.10,2013-02-08 07:25:00,
2013-02-08 02:40:00,49.0,45.0,29.80,SSW,209,0.0,4.0,85,0.01,,,0.01,weatherlink.com 1.10,2013-02-08 07:40:00,
2013-02-08 02:55:00,48.2,45.0,29.80,SSW,200,1.0,6.0,89,0.01,,,0.01,weatherlink.com 1.10,2013-02-08 07:55:00,
2013-02-08 03:10:00,48.1,46.0,29.80,SW,219,2.0,4.0,91,0.01,,,0.01,weatherlink.com 1.10,2013-02-08 08:10:00,
2013-02-08 03:25:00,47.8,46.0,29.80,SSW,201,1.0,3.0,92,0.01,,,0.01,weatherlink.com 1.10,2013-02-08 08:25:00,
2013-02-08 03:40:00,47.7,46.0,29.80,SSW,210,2.0,6.0,93,0.00,,,0.01,weatherlink.com 1.10,2013-02-08 08:40:00,
2013-02-08 03:55:00,47.9,46.0,29.80,South,187,1.0,6.0,94,0.01,,,0.02,weatherlink.com 1.10,2013-02-08 08:55:00,
2013-02-08 04:10:00,47.4,46.0,29.81,NNE,27,2.0,5.0,93,0.01,,,0.02,weatherlink.com 1.10,2013-02-08 09:10:00,
2013-02-08 04:25:00,46.0,44.0,29.82,North,360,3.0,7.0,92,0.01,,,0.02,weatherlink.com 1.10,2013-02-08 09:25:00,
2013-02-08 04:40:00,44.6,43.0,29.83,North,5,2.0,5.0,93,0.02,,,0.03,weatherlink.com 1.10,2013-02-08 09:40:00,
2013-02-08 04:55:00,43.5,42.0,29.85,North,9,2.0,7.0,93,0.02,,,0.04,weatherlink.com 1.10,2013-02-08 09:55:00,
2013-02-08 05:10:00,42.4,40.0,29.86,North,355,1.0,5.0,92,0.03,,,0.05,weatherlink.com 1.10,2013-02-08 10:10:00,
2013-02-08 05:25:00,41.6,40.0,29.86,North,355,3.0,8.0,93,0.03,,,0.05,weatherlink.com 1.10,2013-02-08 10:25:00,
2013-02-08 05:40:00,40.8,39.0,29.87,North,360,2.0,8.0,92,0.03,,,0.06,weatherlink.com 1.10,2013-02-08 10:40:00,
2013-02-08 05:55:00,39.8,38.0,29.88,NW,313,1.0,5.0,92,0.02,,,0.06,weatherlink.com 1.10,2013-02-08 10:55:00,
2013-02-08 06:10:00,39.1,37.0,29.89,NNW,340,0.0,3.0,91,0.01,,,0.06,weatherlink.com 1.10,2013-02-08 11:10:00,
2013-02-08 06:25:00,38.7,36.0,29.89,North,5,1.0,5.0,91,0.01,,,0.06,weatherlink.com 1.10,2013-02-08 11:25:00,
2013-02-08 06:41:00,38.4,36.0,29.90,North,9,1.0,7.0,91,0.00,,,0.06,weatherlink.com 1.10,2013-02-08 11:41:00,
2013-02-08 06:56:00,37.9,36.0,29.92,NNW,336,6.0,8.0,91,0.00,,,0.06,weatherlink.com 1.10,2013-02-08 11:56:00,
2013-02-08 07:11:00,37.1,34.0,29.94,NNW,339,3.0,12.0,89,0.00,,,0.06,weatherlink.com 1.10,2013-02-08 12:11:00,
2013-02-08 07:26:00,36.2,33.0,29.95,NW,309,3.0,8.0,87,0.00,,,0.06,weatherlink.com 1.10,2013-02-08 12:26:00,
2013-02-08 07:41:00,36.2,33.0,29.95,NW,311,2.0,8.0,87,0.00,,,0.06,weatherlink.com 1.10,2013-02-08 12:41:00,
2013-02-08 07:56:00,36.2,33.0,29.96,West,276,1.0,3.0,87,0.00,,,0.06,weatherlink.com 1.10,2013-02-08 12:56:00,
2013-02-08 08:11:00,36.4,33.0,29.97,NE,42,2.0,6.0,86,0.00,,,0.06,weatherlink.com 1.10,2013-02-08 13:11:00,
2013-02-08 08:26:00,36.3,33.0,29.98,WNW,288,3.0,5.0,87,0.00,,,0.06,weatherlink.com 1.10,2013-02-08 13:26:00,
2013-02-08 08:41:00,36.1,33.0,29.99,North,11,4.0,6.0,87,0.00,,,0.06,weatherlink.com 1.10,2013-02-08 13:41:00,
2013-02-08 08:56:00,36.1,33.0,30.00,NE,38,3.0,4.0,87,0.00,,,0.06,weatherlink.com 1.10,2013-02-08 13:56:00,
2013-02-08 09:11:00,35.9,32.0,30.01,NNW,338,4.0,7.0,86,0.00,,,0.06,weatherlink.com 1.10,2013-02-08 14:11:00,
2013-02-08 09:26:00,35.8,33.0,30.02,NNE,15,2.0,6.0,88,0.00,,,0.06,weatherlink.com 1.10,2013-02-08 14:26:00,
2013-02-08 09:41:00,35.9,33.0,30.02,SSE,165,0.0,6.0,88,0.00,,,0.06,weatherlink.com 1.10,2013-02-08 14:41:00,
2013-02-08 09:56:00,35.8,32.0,30.03,NE,47,1.0,5.0,87,0.00,,,0.06,weatherlink.com 1.10,2013-02-08 14:56:00,
2013-02-08 10:11:00,35.9,32.0,30.05,NNW,342,6.0,13.0,87,0.00,,,0.06,weatherlink.com 1.10,2013-02-08 15:11:00,
2013-02-08 10:26:00,35.7,32.0,30.05,North,360,1.0,8.0,86,0.00,,,0.06,weatherlink.com 1.10,2013-02-08 15:26:00,
2013-02-08 10:41:00,35.7,32.0,30.05,NNE,19,2.0,8.0,86,0.00,,,0.06,weatherlink.com 1.10,2013-02-08 15:41:00,
2013-02-08 10:56:00,35.5,32.0,30.07,SE,140,4.0,8.0,87,0.00,,,0.06,weatherlink.com 1.10,2013-02-08 15:56:00,
2013-02-08 11:11:00,35.5,32.0,30.08,NNW,338,5.0,6.0,86,0.00,,,0.06,weatherlink.com 1.10,2013-02-08 16:11:00,
2013-02-08 11:26:00,35.5,32.0,30.09,SSW,211,1.0,5.0,86,0.00,,,0.06,weatherlink.com 1.10,2013-02-08 16:26:00,
2013-02-08 11:41:00,35.8,32.0,30.09,NW,311,3.0,7.0,85,0.00,,,0.06,weatherlink.com 1.10,2013-02-08 16:41:00,
2013-02-08 11:56:00,35.9,32.0,30.09,NNW,348,3.0,5.0,85,0.00,,,0.06,weatherlink.com 1.10,2013-02-08 16:56:00,
2013-02-08 12:11:00,36.1,32.0,30.10,North,5,3.0,5.0,84,0.00,,,0.06,weatherlink.com 1.10,2013-02-08 17:11:00,
2013-02-08 12:26:00,36.1,31.0,30.10,North,360,5.0,5.0,83,0.00,,,0.06,weatherlink.com 1.10,2013-02-08 17:26:00,
2013-02-08 12:41:00,36.1,31.0,30.09,NNE,17,3.0,11.0,82,0.00,,,0.06,weatherlink.com 1.10,2013-02-08 17:41:00,
2013-02-08 12:56:00,36.2,31.0,30.10,North,360,7.0,11.0,81,0.00,,,0.00,weatherlink.com 1.10,2013-02-08 17:56:00,
2013-02-08 13:11:00,36.2,31.0,30.10,North,350,3.0,9.0,80,0.00,,,0.00,weatherlink.com 1.10,2013-02-08 18:11:00,
2013-02-08 13:26:00,35.9,31.0,30.11,NNE,24,5.0,9.0,81,0.00,,,0.00,weatherlink.com 1.10,2013-02-08 18:26:00,
2013-02-08 13:41:00,35.8,30.0,30.11,NNE,19,5.0,5.0,80,0.00,,,0.00,weatherlink.com 1.10,2013-02-08 18:41:00,
2013-02-08 13:56:00,36.0,30.0,30.12,North,349,5.0,10.0,78,0.00,,,0.00,weatherlink.com 1.10,2013-02-08 18:56:00,
2013-02-08 14:11:00,36.2,30.0,30.12,North,10,1.0,8.0,79,0.00,,,0.00,weatherlink.com 1.10,2013-02-08 19:11:00,
2013-02-08 14:26:00,36.2,30.0,30.12,North,355,2.0,6.0,77,0.00,,,0.00,weatherlink.com 1.10,2013-02-08 19:26:00,
2013-02-08 14:41:00,36.4,29.0,30.13,NNW,331,2.0,9.0,75,0.00,,,0.00,weatherlink.com 1.10,2013-02-08 19:41:00,
2013-02-08 14:56:00,36.3,29.0,30.13,West,266,3.0,7.0,76,0.00,,,0.00,weatherlink.com 1.10,2013-02-08 19:56:00,
2013-02-08 15:11:00,36.1,29.0,30.13,NW,323,5.0,8.0,76,0.00,,,0.00,weatherlink.com 1.10,2013-02-08 20:11:00,
2013-02-08 15:26:00,36.4,30.0,30.14,SSW,211,1.0,8.0,76,0.00,,,0.00,weatherlink.com 1.10,2013-02-08 20:26:00,
2013-02-08 15:42:00,36.4,30.0,30.15,North,11,2.0,4.0,76,0.00,,,0.00,weatherlink.com 1.10,2013-02-08 20:42:00,
2013-02-08 15:57:00,35.9,29.0,30.16,North,355,0.0,8.0,76,0.00,,,0.00,weatherlink.com 1.10,2013-02-08 20:57:00,
2013-02-08 16:12:00,35.9,29.0,30.17,NNE,13,3.0,5.0,76,0.00,,,0.00,weatherlink.com 1.10,2013-02-08 21:12:00,
2013-02-08 16:27:00,35.8,29.0,30.18,NNE,13,3.0,6.0,76,0.00,,,0.00,weatherlink.com 1.10,2013-02-08 21:27:00,
2013-02-08 16:42:00,35.7,29.0,30.18,North,5,2.0,5.0,76,0.00,,,0.00,weatherlink.com 1.10,2013-02-08 21:42:00,
2013-02-08 16:57:00,35.6,29.0,30.19,NNE,29,4.0,5.0,76,0.00,,,0.00,weatherlink.com 1.10,2013-02-08 21:57:00,
2013-02-08 17:12:00,35.5,29.0,30.20,NNE,19,6.0,6.0,77,0.00,,,0.00,weatherlink.com 1.10,2013-02-08 22:12:00,
2013-02-08 17:27:00,35.5,29.0,30.20,North,360,1.0,7.0,76,0.00,,,0.00,weatherlink.com 1.10,2013-02-08 22:27:00,
2013-02-08 17:42:00,35.4,29.0,30.22,NNE,15,2.0,4.0,77,0.00,,,0.00,weatherlink.com 1.10,2013-02-08 22:42:00,
2013-02-08 17:57:00,35.4,29.0,30.22,NNE,22,2.0,5.0,77,0.00,,,0.00,weatherlink.com 1.10,2013-02-08 22:57:00,
2013-02-08 18:12:00,35.3,29.0,30.23,NW,316,1.0,3.0,77,0.00,,,0.00,weatherlink.com 1.10,2013-02-08 23:12:00,
2013-02-08 18:27:00,35.3,29.0,30.24,NNW,330,2.0,5.0,77,0.00,,,0.00,weatherlink.com 1.10,2013-02-08 23:27:00,
2013-02-08 18:42:00,35.3,29.0,30.25,North,360,2.0,7.0,77,0.00,,,0.00,weatherlink.com 1.10,2013-02-08 23:42:00,
2013-02-08 18:57:00,35.2,28.0,30.25,North,355,1.0,7.0,76,0.00,,,0.00,weatherlink.com 1.10,2013-02-08 23:57:00,
2013-02-08 19:12:00,35.1,28.0,30.26,NNE,16,3.0,8.0,75,0.00,,,0.00,weatherlink.com 1.10,2013-02-09 00:12:00,
2013-02-08 19:27:00,35.1,28.0,30.26,NNE,19,2.0,6.0,75,0.00,,,0.00,weatherlink.com 1.10,2013-02-09 00:27:00,
2013-02-08 19:42:00,35.0,28.0,30.27,NNW,329,1.0,6.0,75,0.00,,,0.00,weatherlink.com 1.10,2013-02-09 00:42:00,
2013-02-08 19:57:00,35.0,28.0,30.28,NNE,13,1.0,8.0,77,0.00,,,0.00,weatherlink.com 1.10,2013-02-09 00:57:00,
2013-02-08 20:12:00,34.8,28.0,30.29,NNW,334,3.0,6.0,76,0.00,,,0.00,weatherlink.com 1.10,2013-02-09 01:12:00,
2013-02-08 20:27:00,34.6,27.0,30.29,North,5,2.0,6.0,74,0.00,,,0.00,weatherlink.com 1.10,2013-02-09 01:27:00,
2013-02-08 20:42:00,34.4,27.0,30.30,North,355,3.0,6.0,73,0.00,,,0.00,weatherlink.com 1.10,2013-02-09 01:42:00,
2013-02-08 20:57:00,34.2,26.0,30.30,NNW,342,3.0,7.0,73,0.00,,,0.00,weatherlink.com 1.10,2013-02-09 01:57:00,
2013-02-08 21:12:00,33.8,25.0,30.30,North,355,1.0,7.0,71,0.00,,,0.00,weatherlink.com 1.10,2013-02-09 02:12:00,
2013-02-08 21:27:00,33.7,26.0,30.31,NNW,344,2.0,3.0,72,0.00,,,0.00,weatherlink.com 1.10,2013-02-09 02:27:00,
2013-02-08 21:42:00,33.7,26.0,30.32,North,360,2.0,5.0,73,0.00,,,0.00,weatherlink.com 1.10,2013-02-09 02:42:00,
2013-02-08 21:57:00,33.4,26.0,30.32,NNW,329,2.0,6.0,73,0.00,,,0.00,weatherlink.com 1.10,2013-02-09 02:57:00,
2013-02-08 22:13:00,33.2,25.0,30.32,North,360,2.0,4.0,72,0.00,,,0.00,weatherlink.com 1.10,2013-02-09 03:13:00,
2013-02-08 22:28:00,33.1,25.0,30.32,NNW,332,1.0,2.0,73,0.00,,,0.00,weatherlink.com 1.10,2013-02-09 03:28:00,
2013-02-08 22:43:00,33.1,25.0,30.32,North,350,0.0,5.0,72,0.00,,,0.00,weatherlink.com 1.10,2013-02-09 03:43:00,
2013-02-08 22:58:00,33.1,25.0,30.32,NNW,327,1.0,3.0,73,0.00,,,0.00,weatherlink.com 1.10,2013-02-09 03:58:00,
2013-02-08 23:13:00,32.9,25.0,30.32,NNW,347,1.0,6.0,72,0.00,,,0.00,weatherlink.com 1.10,2013-02-09 04:13:00,
2013-02-08 23:28:00,32.6,24.0,30.32,NW,323,0.0,5.0,71,0.00,,,0.00,weatherlink.com 1.10,2013-02-09 04:28:00,
2013-02-08 23:43:00,32.5,24.0,30.32,NNW,327,2.0,6.0,72,0.00,,,0.00,weatherlink.com 1.10,2013-02-09 04:43:00,
2013-02-08 23:58:00,32.5,24.0,30.33,NNE,33,2.0,2.0,72,0.00,,,0.00,weatherlink.com 1.10,2013-02-09 04:58:00,